Miscellaneous Local Product
Issued by NWS North Platte, NE

Home | Current Version | Previous Version | Text Only | Print | Product List | Glossary On
Versions: 1 2 3 4 5 6 7 8 9 10 11 12 13 14 15 16 17 18 19 20 21 22 23 24 25 26 27 28 29 30 31 32 33 34 35 36 37 38 39 40 41 42 43 44 45 46 47 48 49 50
000
AXUS43 KLBF 091210
MISLBF


WESTERN AND NORTH CENTRAL NEBRASKA HOURLY WEATHER ROUNDUP
NATIONAL WEATHER SERVICE NORTH PLATTE NE
700 AM CDT WED JUL 09 2014

***STATIONS NOT REPORTING VARIABLES SUCH AS SKY/WEATHER OR
PRESSURE ARE PROVIDED BY THE NEBRASKA DEPARTMENT OF
ROADS...RAWS...AND APRS NETWORKS...AND ARE NOT UNDER
NATIONAL WEATHER SERVICE QUALITY CONTROL***

...OBSERVATIONS IN AND NEAR THE EASTERN PANHANDLE OF NEBRASKA...

CITY           SKY/WX    TMP DP  RH WIND       PRES   REMARKS
PINE RIDGE     PTCLDY    61  50  67 SE10      30.07F
CHADRON        CLEAR     60  50  69 SE5       30.04F
ALLIANCE       CLEAR     55  50  83 SE8       30.06F
SIDNEY         CLEAR     61  54  77 S9        30.07F
WHITECLAY        N/A     57  49  75 SE10        N/A
RUSHVILLE        N/A     59  50  71 SE15        N/A
GORDON           N/A     63  53  69 SE12        N/A
CRESCENT LAKE    N/A     58  52  81 SE6         N/A
LISCO            N/A     64  51  64 E12         N/A
BIG SPRINGS      N/A     61  54  77 CALM        N/A
$$

...OBSERVATIONS IN NORTH CENTRAL NEBRASKA...

CITY           SKY/WX    TMP DP  RH WIND       PRES   REMARKS
VALENTINE      CLOUDY    59  57  93 SW3       30.09S
THEDFORD       CLEAR     55  53  90 CALM      30.11F
AINSWORTH      CLOUDY    58  56  92 CALM      30.10S
O`NEILL        CLOUDY    56  52  88 SW5       30.08R
ORD            MOCLDY    53  51  93 CALM      30.09R
BROKEN BOW     PTCLDY    54  51  90 CALM      30.10R
BROWNLEE         N/A     64  51  63 CALM        N/A
SPRINGVIEW       N/A     53  51  95 CALM        N/A
ROSE             N/A     62  57  84 CALM        N/A
NEWPORT          N/A     57  56  97 CALM        N/A
SARGENT          N/A     53  52  96 CALM        N/A
COMSTOCK         N/A     59  56  89 CALM        N/A
CHAMBERS         N/A     57  54  91 CALM        N/A
$$

...OBSERVATIONS IN SOUTHWEST NEBRASKA AND FAR NORTHEAST COLORADO...

CITY           SKY/WX    TMP DP  RH WIND       PRES   REMARKS
WRAY           FAIR      63  55  73 CALM      30.09S
HOLYOKE        FAIR      59  55  88 S8        30.08S
IMPERIAL       CLEAR     58  53  84 SE7       30.09S
OGALLALA       CLEAR     61  53  74 E7        30.09R
NORTH PLATTE   CLEAR     55  51  86 SE6       30.10S
MCCOOK         PTCLDY    61  55  81 CALM      30.09S
LEXINGTON      CLEAR     54  52  94 NE5       30.10S
PAXTON           N/A     59  54  84 CALM        N/A
SUTHERLAND       N/A     52  50  93 E6          N/A
BRADY            N/A     55  51  86 CALM        N/A
GOTHENBURG       N/A     56  50  80 CALM        N/A
CALLAWAY         N/A     52  51  95 SE3         N/A
$$

...NORTH PLATTE AREA...

CITY           SKY/WX    TMP DP  RH WIND       PRES   REMARKS
AIRPORT        CLEAR     55  51  86 SE6       30.10S
INDIAN HILLS     N/A     56  53  91 CALM        N/A
$$

...SOME WEATHER OBSERVATIONS FROM AROUND THE REGION...

CITY           SKY/WX    TMP DP  RH WIND       PRES   REMARKS
DENVER         MOCLDY    61  51  70 SW10      30.13S
LARAMIE        CLEAR     52  48  86 S12       30.22S
CHEYENNE       CLEAR     56  52  86 CALM      30.13F
SCOTTSBLUFF    CLEAR     58  52  80 E7        30.05F
RAPID CITY     MOCLDY    58  52  80 CALM      30.07F
PIERRE         CLEAR     56  54  93 SW6       30.04R
WINNER         FAIR      57  52  83 SW5       30.06S
SIOUX FALLS    MOCLDY    59  56  89 CALM      30.04R
OMAHA          CLEAR     64  59  83 CALM      30.06R
GRAND ISLAND   PTCLDY    59  55  87 CALM      30.10R
KANSAS CITY    PTCLDY    64  60  87 NW7       30.04R
WICHITA        PTCLDY    68  60  75 CALM      30.08R
HAYS           CLEAR     63  55  77 E3        30.09S
LIBERAL        PTCLDY    66  55  68 S5        30.14R
GOODLAND       CLEAR     61  55  81 S8        30.11S
$$



USA.gov is the U.S. government's official web portal to all federal, state and local government web resources and services.